Time,TemperatureF,DewpointF,PressureIn,WindDirection,WindDirectionDegrees,WindSpeedMPH,WindSpeedGustMPH,Humidity,HourlyPrecipIn,Conditions,Clouds,dailyrainin,SoftwareType,DateUTC
2013-04-16 00:02:00,28.0,27.0,30.04,NNW,328,3.0,6.0,97,0.00,,,0.01,,2013-04-16 05:02:00,
2013-04-16 00:12:00,28.0,27.0,30.04,NNW,328,3.0,6.0,97,0.00,,,0.01,,2013-04-16 05:12:00,
2013-04-16 00:22:00,28.0,27.0,30.04,NNW,328,2.0,4.0,97,0.00,,,0.01,,2013-04-16 05:22:00,
2013-04-16 00:32:00,28.0,27.0,30.04,NNW,328,0.0,3.0,97,0.00,,,0.01,,2013-04-16 05:32:00,
2013-04-16 00:42:00,28.0,27.0,30.04,NNW,328,0.0,3.0,97,0.00,,,0.01,,2013-04-16 05:42:00,
2013-04-16 00:52:00,28.0,27.0,30.04,NNW,328,0.0,2.0,97,0.00,,,0.01,,2013-04-16 05:52:00,
2013-04-16 01:02:00,28.0,27.0,30.04,NNW,328,0.0,3.0,97,0.00,,,0.01,,2013-04-16 06:02:00,
2013-04-16 01:12:00,28.0,27.0,30.04,NNW,328,0.0,3.0,97,0.00,,,0.01,,2013-04-16 06:12:00,
2013-04-16 01:22:00,28.0,27.0,30.03,NNW,328,1.0,3.0,97,0.00,,,0.01,,2013-04-16 06:22:00,
2013-04-16 01:32:00,27.0,26.0,30.03,NNW,328,1.0,2.0,97,0.00,,,0.01,,2013-04-16 06:32:00,
2013-04-16 01:42:00,27.0,26.0,30.03,NNW,328,1.0,2.0,97,0.00,,,0.01,,2013-04-16 06:42:00,
2013-04-16 01:52:00,27.0,26.0,30.04,NNW,328,0.0,2.0,97,0.00,,,0.01,,2013-04-16 06:52:00,
2013-04-16 02:02:00,27.0,26.0,30.04,NNW,328,2.0,3.0,97,0.00,,,0.01,,2013-04-16 07:02:00,
2013-04-16 02:12:00,27.0,26.0,30.04,NNW,328,2.0,3.0,97,0.00,,,0.01,,2013-04-16 07:12:00,
2013-04-16 02:22:00,27.0,26.0,30.04,NNW,328,3.0,4.0,97,0.00,,,0.01,,2013-04-16 07:22:00,
2013-04-16 02:32:00,27.0,26.0,30.04,NNW,328,3.0,4.0,97,0.00,,,0.01,,2013-04-16 07:32:00,
2013-04-16 02:42:00,27.0,26.0,30.04,NNW,328,3.0,4.0,97,0.00,,,0.01,,2013-04-16 07:42:00,
2013-04-16 02:53:00,27.0,26.0,30.04,NNW,328,2.0,5.0,97,0.00,,,0.01,,2013-04-16 07:53:00,
2013-04-16 03:02:00,27.0,26.0,30.04,NNW,331,3.0,5.0,97,0.00,,,0.01,,2013-04-16 08:02:00,
2013-04-16 03:12:00,27.0,26.0,30.04,NNW,331,3.0,5.0,97,0.00,,,0.01,,2013-04-16 08:12:00,
2013-04-16 03:22:00,26.0,25.0,30.04,NNW,348,3.0,5.0,96,0.00,,,0.01,,2013-04-16 08:22:00,
2013-04-16 03:32:00,26.0,25.0,30.05,North,355,2.0,5.0,96,0.00,,,0.01,,2013-04-16 08:32:00,
2013-04-16 03:42:00,26.0,25.0,30.05,North,355,2.0,5.0,96,0.00,,,0.01,,2013-04-16 08:42:00,
2013-04-16 03:52:00,26.0,25.0,30.05,North,355,3.0,5.0,97,0.00,,,0.01,,2013-04-16 08:52:00,
2013-04-16 04:02:00,26.0,25.0,30.04,North,355,2.0,5.0,96,0.00,,,0.01,,2013-04-16 09:02:00,
2013-04-16 04:12:00,26.0,25.0,30.04,North,355,2.0,5.0,96,0.00,,,0.01,,2013-04-16 09:12:00,
2013-04-16 04:22:00,26.0,25.0,30.05,North,355,2.0,4.0,97,0.00,,,0.01,,2013-04-16 09:22:00,
2013-04-16 04:33:00,26.0,25.0,30.05,North,350,4.0,6.0,96,0.00,,,0.01,,2013-04-16 09:33:00,
2013-04-16 04:42:00,26.0,25.0,30.05,North,350,4.0,6.0,96,0.00,,,0.01,,2013-04-16 09:42:00,
2013-04-16 04:53:00,26.0,25.0,30.06,NNW,338,4.0,6.0,96,0.00,,,0.01,,2013-04-16 09:53:00,
2013-04-16 05:03:00,26.0,25.0,30.07,NNW,338,2.0,4.0,96,0.00,,,0.01,,2013-04-16 10:03:00,
2013-04-16 05:13:00,26.0,25.0,30.07,NNW,338,2.0,4.0,96,0.00,,,0.01,,2013-04-16 10:13:00,
2013-04-16 05:23:00,26.0,25.0,30.10,NNW,338,2.0,4.0,96,0.00,,,0.01,,2013-04-16 10:23:00,
2013-04-16 05:33:00,26.0,25.0,30.10,NNW,338,3.0,5.0,96,0.00,,,0.01,,2013-04-16 10:33:00,
2013-04-16 05:42:00,26.0,25.0,30.10,NNW,338,3.0,5.0,96,0.00,,,0.01,,2013-04-16 10:42:00,
2013-04-16 05:53:00,26.0,25.0,30.10,NNW,338,2.0,3.0,96,0.00,,,0.01,,2013-04-16 10:53:00,
2013-04-16 06:02:00,26.0,25.0,30.11,NNW,338,0.0,0.0,96,0.00,,,0.01,,2013-04-16 11:02:00,
2013-04-16 06:12:00,26.0,25.0,30.11,NNW,338,0.0,0.0,96,0.00,,,0.01,,2013-04-16 11:12:00,
2013-04-16 06:22:00,26.0,25.0,30.13,NNW,338,3.0,5.0,97,0.00,,,0.01,,2013-04-16 11:22:00,
2013-04-16 06:32:00,26.0,25.0,30.13,NNW,338,3.0,4.0,96,0.00,,,0.01,,2013-04-16 11:32:00,
2013-04-16 06:42:00,26.0,25.0,30.13,NNW,338,3.0,4.0,96,0.00,,,0.01,,2013-04-16 11:42:00,
2013-04-16 06:53:00,26.0,25.0,30.14,NNW,338,2.0,4.0,96,0.00,,,0.01,,2013-04-16 11:53:00,
2013-04-16 07:02:00,26.0,25.0,30.14,NNW,338,2.0,4.0,96,0.00,,,0.01,,2013-04-16 12:02:00,
2013-04-16 07:12:00,26.0,25.0,30.14,NNW,338,2.0,4.0,96,0.00,,,0.01,,2013-04-16 12:12:00,
2013-04-16 07:22:00,25.0,24.0,30.15,NNW,338,2.0,4.0,96,0.00,,,0.01,,2013-04-16 12:22:00,
2013-04-16 07:32:00,25.0,24.0,30.16,NNW,338,2.0,5.0,96,0.00,,,0.01,,2013-04-16 12:32:00,
2013-04-16 07:42:00,25.0,24.0,30.16,NNW,338,2.0,5.0,96,0.00,,,0.01,,2013-04-16 12:42:00,
2013-04-16 07:52:00,25.0,24.0,30.15,NNW,339,4.0,5.0,96,0.00,,,0.01,,2013-04-16 12:52:00,
2013-04-16 08:02:00,25.0,24.0,30.15,NNW,340,5.0,7.0,96,0.00,,,0.01,,2013-04-16 13:02:00,
2013-04-16 08:12:00,25.0,24.0,30.15,NNW,340,5.0,7.0,96,0.00,,,0.01,,2013-04-16 13:12:00,
2013-04-16 08:22:00,25.0,24.0,30.16,North,5,0.0,5.0,96,0.00,,,0.01,,2013-04-16 13:22:00,
2013-04-16 08:32:00,25.0,24.0,30.17,North,5,2.0,4.0,96,0.00,,,0.01,,2013-04-16 13:32:00,
2013-04-16 08:42:00,25.0,24.0,30.17,North,5,2.0,4.0,96,0.00,,,0.01,,2013-04-16 13:42:00,
2013-04-16 08:52:00,25.0,24.0,30.17,North,355,6.0,8.0,96,0.00,,,0.01,,2013-04-16 13:52:00,
2013-04-16 09:02:00,25.0,24.0,30.17,North,5,5.0,9.0,96,0.00,,,0.01,,2013-04-16 14:02:00,
2013-04-16 09:12:00,25.0,24.0,30.17,North,5,5.0,9.0,96,0.00,,,0.01,,2013-04-16 14:12:00,
2013-04-16 09:22:00,25.0,24.0,30.18,NNE,19,3.0,7.0,96,0.00,,,0.01,,2013-04-16 14:22:00,
2013-04-16 09:32:00,24.0,23.0,30.19,NNE,14,7.0,10.0,96,0.00,,,0.01,,2013-04-16 14:32:00,
2013-04-16 09:42:00,24.0,23.0,30.19,NNE,14,7.0,10.0,96,0.00,,,0.01,,2013-04-16 14:42:00,
2013-04-16 09:52:00,23.0,22.0,30.19,North,360,5.0,10.0,96,0.00,,,0.01,,2013-04-16 14:52:00,
2013-04-16 10:02:00,23.0,22.0,30.19,NNW,339,6.0,9.0,96,0.00,,,0.01,,2013-04-16 15:02:00,
2013-04-16 10:12:00,23.0,22.0,30.19,NNW,339,6.0,9.0,96,0.00,,,0.01,,2013-04-16 15:12:00,
2013-04-16 10:22:00,23.0,22.0,30.20,NNW,333,5.0,9.0,95,0.00,,,0.01,,2013-04-16 15:22:00,
2013-04-16 10:33:00,23.0,22.0,30.20,North,360,6.0,10.0,95,0.00,,,0.01,,2013-04-16 15:33:00,
2013-04-16 10:43:00,23.0,22.0,30.20,North,360,6.0,10.0,95,0.00,,,0.01,,2013-04-16 15:43:00,
2013-04-16 10:53:00,23.0,22.0,30.20,North,360,6.0,11.0,95,0.00,,,0.01,,2013-04-16 15:53:00,
2013-04-16 11:03:00,23.0,22.0,30.21,North,350,6.0,9.0,95,0.00,,,0.01,,2013-04-16 16:03:00,
2013-04-16 11:13:00,23.0,22.0,30.21,North,350,6.0,9.0,95,0.00,,,0.01,,2013-04-16 16:13:00,
2013-04-16 11:23:00,24.0,23.0,30.21,North,355,6.0,9.0,96,0.00,,,0.01,,2013-04-16 16:23:00,
2013-04-16 11:32:00,24.0,23.0,30.21,NNW,341,4.0,8.0,96,0.00,,,0.01,,2013-04-16 16:32:00,
2013-04-16 11:42:00,24.0,23.0,30.21,NNW,341,4.0,8.0,96,0.00,,,0.01,,2013-04-16 16:42:00,
2013-04-16 11:53:00,25.0,24.0,30.22,NNW,331,6.0,8.0,96,0.00,,,0.01,,2013-04-16 16:53:00,
2013-04-16 12:02:00,25.0,24.0,30.22,North,11,4.0,6.0,96,0.00,,,0.01,,2013-04-16 17:02:00,
2013-04-16 12:12:00,25.0,24.0,30.22,North,11,4.0,6.0,96,0.00,,,0.01,,2013-04-16 17:12:00,
2013-04-16 12:22:00,26.0,25.0,30.22,North,11,6.0,10.0,96,0.00,,,0.01,,2013-04-16 17:22:00,
2013-04-16 12:32:00,26.0,25.0,30.23,North,355,4.0,7.0,96,0.00,,,0.01,,2013-04-16 17:32:00,
2013-04-16 12:43:00,26.0,25.0,30.23,North,355,4.0,7.0,96,0.00,,,0.01,,2013-04-16 17:43:00,
2013-04-16 12:53:00,27.0,26.0,30.25,North,360,3.0,6.0,96,0.00,,,0.01,,2013-04-16 17:53:00,
2013-04-16 13:02:00,27.0,26.0,30.24,NNW,344,5.0,7.0,97,0.00,,,0.01,,2013-04-16 18:02:00,
2013-04-16 13:12:00,27.0,26.0,30.24,NNW,344,5.0,7.0,97,0.00,,,0.01,,2013-04-16 18:12:00,
2013-04-16 13:32:00,28.0,27.0,30.25,North,9,3.0,7.0,97,0.00,,,0.01,,2013-04-16 18:32:00,
2013-04-16 13:42:00,28.0,27.0,30.25,North,9,3.0,7.0,97,0.00,,,0.01,,2013-04-16 18:42:00,
2013-04-16 13:52:00,29.0,28.0,30.24,North,9,2.0,4.0,97,0.00,,,0.01,,2013-04-16 18:52:00,
2013-04-16 14:02:00,29.0,28.0,30.25,North,9,3.0,5.0,97,0.00,,,0.01,,2013-04-16 19:02:00,
2013-04-16 14:12:00,29.0,28.0,30.25,North,9,3.0,5.0,97,0.00,,,0.01,,2013-04-16 19:12:00,
2013-04-16 14:22:00,29.0,28.0,30.24,NE,51,5.0,8.0,97,0.00,,,0.00,,2013-04-16 19:22:00,
2013-04-16 14:32:00,30.0,29.0,30.24,NE,49,4.0,7.0,97,0.00,,,0.00,,2013-04-16 19:32:00,
2013-04-16 14:42:00,30.0,29.0,30.24,NE,49,4.0,7.0,97,0.00,,,0.00,,2013-04-16 19:42:00,
2013-04-16 14:52:00,30.0,29.0,30.24,NNE,26,4.0,5.0,97,0.00,,,0.00,,2013-04-16 19:52:00,
2013-04-16 15:02:00,30.0,29.0,30.24,NNE,22,3.0,7.0,97,0.00,,,0.00,,2013-04-16 20:02:00,
2013-04-16 15:12:00,30.0,29.0,30.24,NNE,22,3.0,7.0,97,0.00,,,0.00,,2013-04-16 20:12:00,
2013-04-16 15:22:00,30.0,29.0,30.24,NE,49,4.0,6.0,97,0.00,,,0.00,,2013-04-16 20:22:00,
2013-04-16 15:32:00,30.0,29.0,30.25,NE,44,3.0,6.0,97,0.00,,,0.00,,2013-04-16 20:32:00,
2013-04-16 15:42:00,30.0,29.0,30.25,NE,44,3.0,6.0,97,0.00,,,0.00,,2013-04-16 20:42:00,
2013-04-16 15:52:00,31.0,30.0,30.25,ENE,57,2.0,7.0,97,0.00,,,0.00,,2013-04-16 20:52:00,
2013-04-16 16:02:00,31.0,31.0,30.26,NNE,26,2.0,5.0,98,0.00,,,0.00,,2013-04-16 21:02:00,
2013-04-16 16:12:00,31.0,31.0,30.26,NNE,26,2.0,5.0,98,0.00,,,0.00,,2013-04-16 21:12:00,
2013-04-16 16:22:00,31.0,31.0,30.25,NNE,26,3.0,6.0,98,0.00,,,0.00,,2013-04-16 21:22:00,
2013-04-16 16:32:00,32.0,32.0,30.26,NNE,26,2.0,3.0,98,0.00,,,0.00,,2013-04-16 21:32:00,
2013-04-16 16:43:00,32.0,32.0,30.26,NNE,26,2.0,3.0,98,0.00,,,0.00,,2013-04-16 21:43:00,
2013-04-16 16:53:00,31.0,31.0,30.26,NE,44,1.0,6.0,98,0.00,,,0.00,,2013-04-16 21:53:00,
2013-04-16 17:02:00,31.0,31.0,30.26,NNE,27,4.0,8.0,98,0.00,,,0.00,,2013-04-16 22:02:00,
2013-04-16 17:13:00,31.0,31.0,30.26,NNE,27,4.0,8.0,98,0.00,,,0.00,,2013-04-16 22:13:00,
2013-04-16 17:22:00,31.0,31.0,30.26,NNE,26,4.0,6.0,98,0.00,,,0.00,,2013-04-16 22:22:00,
2013-04-16 17:33:00,31.0,31.0,30.26,ENE,63,2.0,6.0,98,0.00,,,0.00,,2013-04-16 22:33:00,
2013-04-16 17:42:00,31.0,31.0,30.26,ENE,63,2.0,6.0,98,0.00,,,0.00,,2013-04-16 22:42:00,
2013-04-16 17:52:00,31.0,31.0,30.26,NNE,31,4.0,6.0,98,0.00,,,0.00,,2013-04-16 22:52:00,
2013-04-16 18:02:00,31.0,31.0,30.26,NE,47,3.0,6.0,98,0.00,,,0.00,,2013-04-16 23:02:00,
2013-04-16 18:12:00,31.0,31.0,30.26,NE,47,3.0,6.0,98,0.00,,,0.00,,2013-04-16 23:12:00,
2013-04-16 18:22:00,31.0,31.0,30.27,NE,55,1.0,6.0,98,0.00,,,0.00,,2013-04-16 23:22:00,
2013-04-16 18:32:00,31.0,31.0,30.27,ENE,63,2.0,7.0,98,0.00,,,0.00,,2013-04-16 23:32:00,
2013-04-16 18:42:00,31.0,31.0,30.27,ENE,63,2.0,7.0,98,0.00,,,0.00,,2013-04-16 23:42:00,
2013-04-16 18:52:00,31.0,31.0,30.28,ENE,57,2.0,6.0,98,0.00,,,0.00,,2013-04-16 23:52:00,
2013-04-16 19:02:00,31.0,31.0,30.27,ENE,74,3.0,8.0,98,0.00,,,0.00,,2013-04-17 00:02:00,
2013-04-16 19:12:00,31.0,31.0,30.27,ENE,74,3.0,8.0,98,0.00,,,0.00,,2013-04-17 00:12:00,
2013-04-16 19:22:00,31.0,31.0,30.28,NE,45,4.0,8.0,98,0.00,,,0.00,,2013-04-17 00:22:00,
2013-04-16 19:32:00,31.0,31.0,30.28,NE,44,4.0,7.0,98,0.00,,,0.00,,2013-04-17 00:32:00,
2013-04-16 19:42:00,31.0,31.0,30.28,NE,44,4.0,7.0,98,0.00,,,0.00,,2013-04-17 00:42:00,
2013-04-16 19:52:00,30.0,29.0,30.27,NE,40,4.0,8.0,98,0.00,,,0.00,,2013-04-17 00:52:00,
2013-04-16 20:02:00,30.0,29.0,30.27,ENE,64,4.0,9.0,98,0.00,,,0.00,,2013-04-17 01:02:00,
2013-04-16 20:12:00,30.0,29.0,30.27,ENE,64,4.0,9.0,98,0.00,,,0.00,,2013-04-17 01:12:00,
2013-04-16 20:22:00,30.0,29.0,30.28,NE,48,3.0,7.0,97,0.00,,,0.00,,2013-04-17 01:22:00,
2013-04-16 20:32:00,29.0,29.0,30.28,ENE,65,4.0,7.0,98,0.00,,,0.00,,2013-04-17 01:32:00,
2013-04-16 20:42:00,29.0,29.0,30.28,ENE,65,4.0,7.0,98,0.00,,,0.00,,2013-04-17 01:42:00,
2013-04-16 20:52:00,29.0,28.0,30.28,ENE,61,2.0,8.0,97,0.00,,,0.00,,2013-04-17 01:52:00,
2013-04-16 21:02:00,29.0,28.0,30.29,ENE,58,3.0,6.0,97,0.00,,,0.00,,2013-04-17 02:02:00,
2013-04-16 21:12:00,29.0,28.0,30.29,ENE,58,3.0,6.0,97,0.00,,,0.00,,2013-04-17 02:12:00,
2013-04-16 21:22:00,29.0,28.0,30.29,ENE,65,1.0,6.0,97,0.00,,,0.00,,2013-04-17 02:22:00,
2013-04-16 21:32:00,29.0,28.0,30.30,ENE,65,1.0,4.0,97,0.00,,,0.00,,2013-04-17 02:32:00,
2013-04-16 21:42:00,29.0,28.0,30.30,ENE,65,1.0,4.0,97,0.00,,,0.00,,2013-04-17 02:42:00,
2013-04-16 21:52:00,29.0,28.0,30.30,East,79,2.0,5.0,97,0.00,,,0.00,,2013-04-17 02:52:00,
2013-04-16 22:02:00,28.0,27.0,30.31,East,82,1.0,4.0,97,0.00,,,0.00,,2013-04-17 03:02:00,
2013-04-16 22:12:00,28.0,27.0,30.31,East,82,1.0,4.0,97,0.00,,,0.00,,2013-04-17 03:12:00,
2013-04-16 22:22:00,28.0,27.0,30.32,East,82,0.0,3.0,97,0.00,,,0.00,,2013-04-17 03:22:00,
2013-04-16 22:32:00,28.0,27.0,30.33,East,82,1.0,3.0,97,0.00,,,0.00,,2013-04-17 03:32:00,
2013-04-16 22:42:00,28.0,27.0,30.33,East,82,1.0,3.0,97,0.00,,,0.00,,2013-04-17 03:42:00,
2013-04-16 22:53:00,28.0,27.0,30.33,East,84,1.0,3.0,97,0.00,,,0.00,,2013-04-17 03:53:00,
2013-04-16 23:03:00,28.0,27.0,30.33,East,84,0.0,2.0,97,0.00,,,0.00,,2013-04-17 04:03:00,
2013-04-16 23:13:00,28.0,27.0,30.33,East,84,0.0,2.0,97,0.00,,,0.00,,2013-04-17 04:13:00,
2013-04-16 23:22:00,28.0,27.0,30.33,East,84,0.0,3.0,97,0.00,,,0.00,,2013-04-17 04:22:00,
2013-04-16 23:33:00,27.0,26.0,30.33,East,84,2.0,5.0,97,0.00,,,0.00,,2013-04-17 04:33:00,
2013-04-16 23:42:00,27.0,26.0,30.33,East,84,2.0,5.0,97,0.00,,,0.00,,2013-04-17 04:42:00,
2013-04-16 23:52:00,27.0,26.0,30.33,East,84,0.0,2.0,97,0.00,,,0.00,,2013-04-17 04:52:00,